Middleton, WI

4:34 PM CDT on October 21, 2017 (GMT -0500)
Middleton

Weather History for KC29 - May, 2014

Change the Weather History Date:

Saturday, May 10, 2014

  Actual Average (KMSN) Record (KMSN)
Temperature  
Mean Temperature 56 °F -  
Max Temperature 74 °F 69 °F 87 °F (1993)
Min Temperature 39 °F 42 °F 22 °F (1966)
Degree Days  
Heating Degree Days 8    
Growing Degree Days 6 (Base 50)    
Moisture  
Dew Point 40 °F    
Average Humidity 58    
Maximum Humidity 95    
Minimum Humidity 25    
Precipitation  
Precipitation 0.00 in - - ()
Sea Level Pressure  
Sea Level Pressure 29.90 in    
Wind  
Wind Speed 2 mph (West)    
Max Wind Speed 12 mph    
Max Gust Speed 17 mph    
Visibility 10 miles    
Events      
Averages and records for this station are not official NWS values.
T = Trace of Precipitation, MM = Missing Value Source: NWS Daily Summary

Daily Weather History Graph

Daily Weather History Graph

Search for Another Location

Airport or City:

Trip Planner

Search our weather history database for the weather conditions in past years. The results will help you decide how hot, cold, wet, or windy it might be!

Date:

Astronomy

May. 10, 2014 Rise Set
Actual Time 5:40 AM CDT 8:09 PM CDT
Civil Twilight 5:08 AM CDT 8:41 PM CDT
Nautical Twilight 4:28 AM CDT 9:22 PM CDT
Astronomical Twilight 3:42 AM CDT 10:07 PM CDT
Moon 3:58 PM CDT (5/10) 3:20 AM CDT (5/10)
Length of Visible Light 15h 33m
Length of Day
14h 29m
Waxing Gibbous, 82% of the Moon is Illuminated
May 10
Waxing Gibbous
May 14
Full
May 21
Last Quarter
May 28
New
Jun 5
First Quarter

Hourly Weather History & Observations

Time (CDT) Temp. Dew Point Humidity Pressure Visibility Wind Dir Wind Speed Gust Speed Precip Events Conditions
12:10 AM 49.1 °F 42.1 °F 77% 29.85 in 10.0 mi WSW 3.5 mph - N/A   Clear
12:30 AM 45.1 °F 39.0 °F 79% 29.86 in 10.0 mi Calm Calm - N/A   Clear
12:50 AM 44.4 °F 40.6 °F 87% 29.86 in 10.0 mi Calm Calm - N/A   Clear
1:10 AM 47.5 °F 42.1 °F 82% 29.88 in 10.0 mi Calm Calm - N/A   Clear
1:30 AM 47.3 °F 40.6 °F 78% 29.88 in 10.0 mi Calm Calm - N/A   Clear
1:50 AM 43.2 °F 40.5 °F 90% 29.88 in 10.0 mi Calm Calm - N/A   Clear
2:10 AM 42.6 °F 40.1 °F 91% 29.88 in 10.0 mi Calm Calm - N/A   Clear
2:30 AM 41.2 °F 38.8 °F 91% 29.88 in 10.0 mi Calm Calm - N/A   Clear
2:50 AM 41.9 °F 39.6 °F 91% 29.88 in 10.0 mi Calm Calm - N/A   Clear
3:10 AM 41.0 °F 38.8 °F 92% 29.88 in 10.0 mi Calm Calm - N/A   Clear
3:30 AM 40.8 °F 39.2 °F 94% 29.89 in 10.0 mi Calm Calm - N/A   Clear
3:50 AM 40.1 °F 38.5 °F 94% 29.89 in 10.0 mi Calm Calm - N/A   Clear
4:10 AM 42.6 °F 41.0 °F 94% 29.88 in 10.0 mi Calm Calm - N/A   Clear
4:30 AM 40.3 °F 38.8 °F 95% 29.89 in 10.0 mi Calm Calm - N/A   Clear
4:50 AM 40.5 °F 38.5 °F 93% 29.89 in 10.0 mi Calm Calm - N/A   Clear
5:10 AM 39.0 °F 37.2 °F 93% 29.90 in 10.0 mi Calm Calm - N/A   Clear
5:30 AM 39.2 °F 37.9 °F 95% 29.90 in 10.0 mi Calm Calm - N/A   Clear
5:50 AM 39.6 °F 38.3 °F 95% 29.90 in 7.0 mi Calm Calm - N/A   Clear
6:10 AM 41.0 °F 39.6 °F 95% 29.91 in 10.0 mi Calm Calm - N/A   Clear
6:30 AM 39.9 °F 38.3 °F 94% 29.91 in 10.0 mi Calm Calm - N/A   Clear
6:50 AM 43.9 °F 42.4 °F 95% 29.92 in 10.0 mi Calm Calm - N/A   Clear
7:10 AM 46.8 °F 44.6 °F 92% 29.92 in 10.0 mi Calm Calm - N/A   Clear
7:30 AM 50.5 °F 46.4 °F 86% 29.92 in 10.0 mi Calm Calm - N/A   Clear
7:50 AM 53.2 °F 46.0 °F 77% 29.93 in 10.0 mi Calm Calm - N/A   Clear
8:10 AM 57.2 °F 42.3 °F 57% 29.93 in 10.0 mi Calm Calm - N/A   Clear
8:30 AM 58.6 °F 37.8 °F 46% 29.93 in 10.0 mi NNW 4.6 mph - N/A   Clear
8:50 AM 59.9 °F 35.4 °F 40% 29.93 in 10.0 mi NW 5.8 mph - N/A   Clear
9:10 AM 60.6 °F 35.1 °F 38% 29.94 in 10.0 mi NNW 3.5 mph - N/A   Clear
9:30 AM 61.0 °F 36.0 °F 39% 29.94 in 10.0 mi WNW 3.5 mph - N/A   Clear
9:50 AM 61.7 °F 36.1 °F 39% 29.94 in 10.0 mi Calm Calm - N/A   Clear
10:10 AM 63.0 °F 36.7 °F 38% 29.94 in 10.0 mi NW 5.8 mph - N/A   Clear
10:30 AM 63.7 °F 37.4 °F 38% 29.94 in 10.0 mi WNW 4.6 mph - N/A   Clear
11:10 AM 64.8 °F 35.4 °F 34% 29.94 in 10.0 mi Calm Calm - N/A   Clear
11:30 AM 65.8 °F 34.3 °F 31% 29.94 in 10.0 mi NW 4.6 mph - N/A   Clear
11:50 AM 66.4 °F 36.0 °F 33% 29.94 in 10.0 mi WNW 3.5 mph - N/A   Clear
12:10 PM 67.3 °F 35.8 °F 31% 29.93 in 10.0 mi Calm Calm - N/A   Clear
12:30 PM 68.4 °F 37.0 °F 32% 29.93 in 10.0 mi Calm Calm - N/A   Clear
12:50 PM 68.9 °F 34.9 °F 29% 29.92 in 10.0 mi Calm Calm - N/A   Clear
1:10 PM 70.0 °F 37.0 °F 30% 29.92 in 10.0 mi Calm Calm - N/A   Clear
1:30 PM 70.9 °F 34.7 °F 26% 29.91 in 10.0 mi Calm Calm - N/A   Clear
1:50 PM 71.1 °F 34.7 °F 26% 29.91 in 10.0 mi NNW 3.5 mph - N/A   Clear
2:10 PM 71.6 °F 34.0 °F 25% 29.91 in 10.0 mi Calm Calm - N/A   Clear
2:30 PM 72.7 °F 34.7 °F 25% 29.90 in 10.0 mi SSW 3.5 mph - N/A   Clear
2:50 PM 73.4 °F 36.5 °F 26% 29.90 in 10.0 mi SE 5.8 mph - N/A   Clear
3:10 PM 73.6 °F 36.9 °F 26% 29.89 in 10.0 mi SSE 5.8 mph - N/A   Clear
3:30 PM 72.5 °F 36.5 °F 27% 29.89 in 10.0 mi WNW 6.9 mph - N/A   Scattered Clouds
3:50 PM 72.7 °F 40.1 °F 31% 29.90 in 10.0 mi WSW 8.1 mph - N/A   Scattered Clouds
4:10 PM 72.0 °F 38.1 °F 29% 29.90 in 10.0 mi SW 11.5 mph 17.3 mph N/A   Scattered Clouds
4:30 PM 71.6 °F 38.8 °F 30% 29.90 in 10.0 mi West 10.4 mph - N/A   Scattered Clouds
4:50 PM 70.9 °F 40.3 °F 33% 29.89 in 10.0 mi West 10.4 mph - N/A   Mostly Cloudy
5:10 PM 74.3 °F 39.6 °F 29% 29.88 in 10.0 mi West 8.1 mph - N/A   Scattered Clouds
5:30 PM 72.1 °F 39.0 °F 30% 29.89 in 10.0 mi WNW 6.9 mph - N/A   Scattered Clouds
5:50 PM 71.6 °F 38.5 °F 30% 29.88 in 10.0 mi WNW 5.8 mph - N/A   Scattered Clouds
6:50 PM 69.8 °F 41.9 °F 36% 29.88 in 10.0 mi Calm Calm - N/A   Scattered Clouds
7:10 PM 70.2 °F 36.0 °F 29% 29.87 in 10.0 mi Calm Calm - N/A   Scattered Clouds
7:30 PM 67.1 °F 44.8 °F 45% 29.88 in 10.0 mi North 4.6 mph - N/A   Scattered Clouds
7:50 PM 64.2 °F 46.9 °F 53% 29.89 in 10.0 mi Calm Calm - N/A   Mostly Cloudy
8:10 PM 62.6 °F 46.2 °F 55% 29.90 in 10.0 mi Calm Calm - N/A   Scattered Clouds
8:30 PM 61.7 °F 46.6 °F 58% 29.90 in 10.0 mi Calm Calm - N/A   Clear
8:50 PM 58.1 °F 46.4 °F 65% 29.91 in 10.0 mi Calm Calm - N/A   Clear
9:10 PM 56.5 °F 46.6 °F 69% 29.91 in 10.0 mi Calm Calm - N/A   Mostly Cloudy
9:30 PM 56.8 °F 46.0 °F 67% 29.92 in 10.0 mi Calm Calm - N/A   Mostly Cloudy
9:50 PM 55.6 °F 47.1 °F 73% 29.92 in 10.0 mi Calm Calm - N/A   Scattered Clouds
10:10 PM 55.8 °F 47.7 °F 74% 29.92 in 10.0 mi Calm Calm - N/A   Mostly Cloudy
10:30 PM 56.3 °F 48.4 °F 75% 29.92 in 10.0 mi Calm Calm - N/A   Overcast
10:50 PM 58.3 °F 47.7 °F 68% 29.93 in 10.0 mi Calm Calm - N/A   Overcast
11:10 PM 61.5 °F 45.3 °F 55% 29.91 in 10.0 mi SE 8.1 mph - N/A   Scattered Clouds
11:30 PM 63.1 °F 42.4 °F 47% 29.91 in 10.0 mi SE 10.4 mph - N/A   Clear
11:50 PM 62.4 °F 41.7 °F 47% 29.90 in 10.0 mi SE 10.4 mph 17.3 mph N/A   Clear